Location: Zagreb
(45.8000°N, 16.0000°E)
Time: 18:22:22
(UTC+02:00)

A-11 Canister half - Pass Details

Date: 09 August 2022
Orbit: 1524 x 1684 km, 47.3° (Epoch: 05 October)

Event Time Altitude Azimuth Distance (km) Brightness Sun altitude
Rises 15:39:18 0° 285° (WNW) 4,878 12.1 45.5°
Reaches altitude 10° 15:45:57 10° 254° (WSW) 3,843 12.1 44.4°
Maximum altitude 15:48:12 11° 240° (WSW) 3,745 12.2 44.1°
Drops below altitude 10° 15:50:27 10° 226° (SW) 3,807 12.1 43.7°
Sets 15:56:58 0° 194° (SSW) 4,741 12.0 42.7°
